Location: Lynch Observatory
(39.9540°N, 75.1861°W)
Time: 01:03:38
(UTC-04:00)

STARS - Visible Passes

Search period start: 16 April 2024 00:00
Search period end: 26 April 2024 00:00
Orbit: 609 x 620 km, 98.1° (Epoch: 15 April)

Date Brightness Start Highest point End Pass type
(mag) Time Alt. Az. Time Alt. Az. Time Alt. Az.
16 Apr ? 01:03:08 10° NNE 01:03:11 10° NNE 01:03:11 10° NNE visible
17 Apr ? 01:18:43 10° N 01:19:00 12° N 01:19:00 12° N visible
18 Apr ? 01:34:24 10° N 01:34:49 12° N 01:34:49 12° N visible
19 Apr ? 01:50:10 10° N 01:50:36 12° NNW 01:50:36 12° NNW visible
20 Apr ? 02:06:06 10° NNW 02:06:23 11° NNW 02:06:23 11° NNW visible
21 Apr ? 00:44:54 10° NNE 00:45:05 11° NNE 00:45:05 11° NNE visible
22 Apr ? 01:00:17 10° NNE 01:00:50 13° NNE 01:00:50 13° NNE visible
23 Apr ? 01:15:46 10° N 01:16:35 15° N 01:16:35 15° N visible
24 Apr ? 01:31:20 10° N 01:32:18 16° N 01:32:18 16° N visible
25 Apr ? 01:47:01 10° N 01:48:01 16° NNW 01:48:01 16° NNW visible
